Wind_Speed
12 11 10 9 8 6 6 7 5 5 5 6 7 8 7 6 4 3 3 1 2 2 3 3 4 4 5 5 5 6 6 7 8 8 9 9 10 10 10 10 10 10 10 9 9 9 8 8 8
10 8 7 7 6 5 5 6 5 5 5 5 4 5 6 5 5 4 4 3 3 3 4 4 4 4 4 5 5 5 6 6 7 7 8 9 9 9 10 10 10 10 10 10 9 9 9 8 8
8 6 5 5 4 3 3 3 4 6 7 6 4 4 5 5 6 6 5 5 5 5 5 5 5 5 5 5 5 6 6 6 7 7 8 9 9 9 9 10 10 10 10 10 10 10 10 9 9
6 5 3 2 1 1 0 1 4 5 6 7 6 5 5 6 7 7 7 7 7 6 6 6 6 6 6 6 6 6 7 7 8 8 9 9 10 10 10 10 10 11 11 11 11 10 10 10 10
8 6 5 6 4 4 4 4 4 5 7 8 8 7 7 8 8 8 9 9 8 8 8 7 7 7 6 7 7 8 8 9 10 10 10 10 11 11 11 11 12 12 12 12 12 12 11 11 11
10 8 7 9 8 6 6 8 7 7 7 8 9 9 9 8 9 10 10 9 9 9 9 8 8 8 8 9 10 10 11 11 12 12 12 12 13 13 13 14 14 14 14 14 14 13 13 13 13
13 10 8 8 7 7 9 10 10 10 9 10 10 11 11 9 9 10 11 10 10 10 10 9 10 10 11 11 12 12 13 14 14 14 15 15 15 16 16 16 16 16 16 16 16 16 16 16 16
15 13 10 8 7 6 8 10 12 12 13 12 12 13 14 12 11 10 12 11 10 11 11 11 11 12 12 13 14 15 15 15 16 16 17 18 18 18 18 19 19 19 19 19 19 19 19 19 19
18 17 15 12 10 6 6 9 12 13 13 14 14 15 15 15 13 11 12 13 13 12 12 12 13 13 14 14 15 16 17 17 18 18 19 20 20 20 20 21 21 21 21 21 21 21 21 21 22
20 19 19 19 15 11 8 9 13 15 15 16 17 18 18 18 16 15 14 15 16 15 14 14 15 15 16 16 17 18 18 19 19 19 20 20 21 21 22 22 22 22 22 22 23 23 23 24 24
22 21 24 24 21 18 15 14 16 18 19 19 21 22 22 21 19 18 17 18 19 18 17 17 17 18 18 19 19 20 20 20 20 21 21 21 21 21 22 22 23 24 24 24 24 24 24 25 25
23 22 27 29 28 25 22 21 22 23 22 24 25 26 26 25 24 24 24 22 21 21 19 20 20 21 21 22 22 22 22 22 22 22 22 23 23 23 23 24 25 25 25 25 25 25 25 25 26
22 22 27 30 32 30 28 27 27 27 27 29 30 30 29 30 28 28 28 25 26 23 22 22 23 23 23 24 23 24 24 23 23 23 23 23 24 24 24 25 25 25 25 25 25 25 24 25 26
21 22 22 24 28 30 30 29 30 29 29 31 31 32 32 32 31 31 30 29 30 28 26 26 25 26 25 26 26 25 25 25 24 24 24 24 24 25 25 25 24 24 24 24 24 24 23 23 23
19 19 18 18 21 22 26 28 28 28 28 30 31 32 33 33 34 33 33 34 34 31 30 28 27 27 27 28 27 26 26 26 26 26 26 25 25 25 25 24 24 24 24 24 23 23 22 22 21
17 17 15 13 16 16 22 23 22 24 27 28 30 31 33 35 36 36 35 35 34 32 31 30 28 28 29 29 27 28 28 28 28 28 27 27 26 26 26 25 25 25 25 24 23 23 21 21 21
15 14 13 12 12 14 17 17 16 21 24 26 28 31 33 36 38 39 38 37 36 35 33 31 30 29 29 29 28 29 29 30 30 29 28 27 27 26 26 26 25 25 24 24 23 22 21 20 19
14 14 13 13 11 13 15 17 19 22 24 26 29 32 36 38 39 40 40 38 39 36 32 26 26 28 28 29 27 28 29 30 31 29 29 29 28 27 26 26 26 25 24 24 23 22 21 20 19
11 12 12 13 13 15 17 18 20 23 27 31 32 34 37 39 40 40 39 39 38 34 30 27 27 28 28 29 29 29 30 30 30 29 29 29 28 27 27 26 26 25 25 24 23 23 22 22 20
10 13 16 17 18 19 21 22 24 27 30 32 34 36 37 39 40 38 36 36 37 33 29 30 29 29 29 29 29 29 30 30 29 28 28 28 28 28 28 27 26 26 26 25 25 23 23 22 21
11 14 17 19 20 22 23 24 28 31 32 33 34 34 35 35 34 32 33 34 33 32 29 28 29 28 29 29 29 30 30 29 28 27 28 28 28 29 29 26 26 27 27 27 26 25 24 23 22
11 13 16 19 21 23 24 26 27 30 32 33 33 32 32 30 31 31 31 32 32 31 31 29 29 30 30 31 31 30 30 31 30 30 30 30 30 30 29 28 28 28 28 28 27 27 26 25 24
9 12 14 15 17 20 21 24 25 28 30 31 33 32 31 30 32 32 31 31 31 30 30 30 30 31 32 32 32 33 33 33 33 33 33 32 32 32 31 30 31 31 30 30 30 29 28 27 26
9 10 11 13 14 16 18 20 22 22 24 27 28 29 29 27 29 30 30 30 30 30 32 33 33 34 34 35 35 36 36 36 37 37 37 36 36 35 35 34 34 34 33 33 32 31 31 30 29
10 11 11 10 12 14 16 18 19 20 22 21 21 21 24 26 27 29 31 32 33 34 35 37 38 39 39 40 41 42 42 42 42 42 42 41 40 40 40 39 38 37 37 37 36 35 34 33 32
8 10 11 13 13 15 17 19 20 22 22 23 23 24 24 23 26 30 33 34 36 39 41 42 44 45 45 46 47 48 47 47 47 47 47 46 46 45 44 44 42 41 41 40 39 38 37 36 35
10 12 14 16 17 18 19 20 21 24 25 26 27 28 28 28 31 34 36 38 40 43 45 46 48 49 50 51 51 52 52 52 53 52 52 51 51 50 49 48 47 46 44 44 42 40 40 39 38
13 15 15 17 19 19 21 22 25 27 28 31 33 35 36 36 39 40 41 43 46 47 49 50 52 52 53 54 55 55 55 56 56 56 56 56 55 54 53 52 51 50 49 47 46 44 43 42 41
13 15 16 17 19 22 24 26 27 29 32 35 38 40 40 43 45 47 48 50 52 53 54 55 56 56 57 57 58 58 58 59 59 59 59 59 59 59 58 57 55 54 53 52 50 48 46 45 44
15 17 18 18 21 23 26 29 31 33 36 39 41 43 45 47 49 51 53 55 56 58 59 60 61 61 61 61 61 61 61 62 62 62 62 62 62 62 61 60 59 59 58 56 54 52 50 48 46
Wind_Direction
120 123 122 119 115 104 74 54 22 334 322 320 311 312 327 340 338 326 324 328 318 334 338 345 352 357 359 1 3 4 4 4 2 360 357 354 352 350 349 348 347 347 348 349 350 353 358 2 7
127 123 123 120 112 86 46 36 6 345 342 336 316 307 311 319 313 301 294 288 284 297 306 313 322 329 331 332 336 341 344 346 347 347 346 343 340 338 337 335 335 335 336 337 337 337 339 343 348
143 138 129 139 142 109 65 29 2 359 349 342 328 310 305 305 298 292 290 282 278 284 290 298 304 309 313 315 318 323 327 329 331 332 332 331 328 326 324 323 322 322 323 324 324 324 325 326 329
178 178 192 228 240 150 204 346 350 353 345 334 322 314 307 299 293 291 289 284 279 281 286 290 295 298 300 304 308 312 314 316 316 317 319 320 318 316 313 311 310 310 310 311 312 312 312 313 315
206 212 228 261 278 293 302 292 314 327 329 329 323 316 309 298 293 293 291 287 282 282 283 284 287 289 291 295 298 300 302 304 305 306 306 307 308 306 304 302 300 299 299 298 299 299 300 301 302
218 224 251 272 273 295 320 314 296 292 305 315 318 314 308 302 296 294 290 288 285 284 282 282 285 287 289 293 295 296 297 298 299 298 297 296 295 295 294 292 291 290 290 289 288 287 287 289 290
223 223 240 263 274 314 320 315 296 288 294 303 307 306 309 304 298 293 289 287 285 283 281 281 285 289 292 295 296 297 296 296 296 295 294 293 292 291 289 287 285 284 283 282 282 281 280 281 282
226 219 218 240 261 315 324 304 290 293 295 298 306 307 305 301 297 289 286 283 281 281 280 282 287 291 294 296 296 297 296 295 295 294 293 292 290 289 287 286 285 283 280 279 278 278 277 276 276
232 221 214 224 240 262 302 296 285 290 295 296 304 306 304 301 295 286 283 284 280 280 282 284 288 292 295 297 298 297 297 297 296 294 292 291 290 288 287 286 284 283 281 280 278 277 276 275 275
237 224 218 228 235 245 257 272 277 280 285 289 296 299 301 303 297 289 287 285 280 278 281 284 287 291 294 296 297 297 297 297 295 294 293 291 290 289 288 286 284 283 282 281 280 279 278 276 274
241 226 220 227 231 237 244 251 261 270 279 287 290 293 296 296 292 287 286 282 279 278 279 283 287 290 292 295 296 297 298 298 297 295 293 292 290 289 288 287 286 284 282 281 281 281 279 278 276
249 235 227 230 235 236 240 247 252 262 272 281 286 289 292 290 290 287 288 283 279 280 280 283 286 289 292 293 295 296 298 299 298 296 294 293 291 290 288 287 286 284 283 282 281 282 281 279 278
255 247 240 239 242 244 244 248 254 261 269 276 281 283 287 289 289 289 289 285 285 280 279 283 285 286 287 289 291 292 294 297 295 292 290 289 289 288 287 286 284 282 281 281 281 281 281 280 279
255 254 251 251 252 252 251 251 254 261 267 271 276 280 283 286 288 289 288 288 286 279 276 276 278 280 283 285 286 287 290 293 291 290 289 289 288 286 285 284 281 280 279 279 279 281 282 281 280
255 257 256 256 254 254 253 252 254 259 263 269 275 279 283 286 288 289 291 291 288 279 274 273 271 276 279 280 281 283 286 289 289 290 289 289 288 286 284 282 281 281 280 280 280 281 281 280 279
257 256 249 244 246 248 253 256 253 255 260 266 274 280 284 286 287 288 290 290 286 283 277 271 268 273 275 274 276 280 285 287 287 288 288 288 287 286 284 283 282 282 281 281 281 281 279 279 278
256 248 239 230 236 239 247 255 253 257 262 268 275 280 283 286 288 290 291 287 285 280 279 274 266 266 272 274 277 280 283 285 286 288 289 290 288 286 285 284 282 280 280 280 280 280 279 278 279
249 245 234 226 231 242 245 251 255 259 264 267 272 278 282 287 289 291 292 291 289 284 280 277 274 277 276 275 277 280 282 283 284 286 287 288 288 286 283 280 279 278 278 278 278 278 277 276 277
246 242 234 230 234 244 248 250 250 251 255 260 268 275 281 285 288 291 294 295 294 290 285 283 281 281 284 281 282 284 283 284 284 286 286 286 285 285 282 279 277 276 277 276 275 276 276 274 274
255 246 237 234 235 239 242 244 246 251 256 261 267 272 278 282 287 290 296 299 300 299 298 289 282 282 284 284 286 286 287 287 284 286 285 285 285 284 283 280 276 276 275 273 273 273 275 274 273
250 252 246 241 240 243 247 250 255 257 261 263 265 268 273 279 285 290 296 302 304 304 301 298 292 288 286 288 286 286 288 286 285 289 288 286 285 283 283 281 277 276 276 275 273 271 272 272 271
259 260 258 250 248 252 256 262 265 268 267 266 267 268 273 279 285 289 293 299 302 301 300 300 298 293 290 290 287 287 288 288 289 290 288 286 283 284 282 280 278 276 276 274 272 271 270 269 270
280 277 275 266 258 258 263 270 276 278 276 272 269 269 272 277 281 285 291 296 297 297 298 297 295 294 293 289 285 286 287 288 286 286 286 284 281 281 281 279 277 275 274 273 272 270 269 269 269
302 296 289 280 273 271 271 278 288 296 289 279 273 272 271 276 280 283 288 293 295 296 299 297 294 295 293 291 291 288 286 286 283 283 283 281 279 278 278 276 275 273 272 271 269 269 269 269 269
306 306 303 291 285 288 289 293 300 305 307 300 293 290 287 288 287 286 290 294 295 298 300 300 299 297 296 294 293 291 289 286 284 282 281 279 277 276 275 274 273 272 271 269 267 267 267 267 267
317 313 311 311 311 311 310 309 312 314 318 317 315 314 310 302 298 296 293 295 298 300 301 301 300 298 296 294 293 291 289 287 284 282 281 279 277 275 275 273 271 270 269 268 265 264 264 264 265
311 311 311 311 313 313 313 316 321 319 320 320 318 316 311 306 304 302 297 297 299 299 300 299 297 295 294 292 291 289 287 286 284 282 280 279 277 275 273 272 269 268 267 266 265 264 262 262 264
309 307 306 312 314 315 315 318 322 322 322 321 320 316 311 308 307 305 303 301 302 301 299 298 296 294 292 290 289 287 285 283 282 280 279 277 276 274 272 271 270 268 266 266 264 262 262 262 262
306 308 307 309 315 316 317 319 321 321 320 320 318 316 313 312 310 310 309 307 305 303 301 299 297 295 293 291 289 287 285 283 281 279 277 276 274 273 271 270 268 267 266 264 263 261 261 261 260
306 309 309 310 314 316 318 320 321 320 319 318 317 316 314 313 312 310 309 308 306 304 302 300 298 296 293 291 289 287 284 282 280 278 276 274 272 271 270 268 266 265 264 263 262 260 259 259 258
Height
5933 5933 5933 5934 5934 5933 5932 5932 5932 5933 5933 5933 5932 5932 5931 5932 5932 5933 5930 5928 5928 5927 5926 5925 5925 5924 5924 5923 5922 5921 5920 5920 5919 5918 5917 5916 5915 5913 5912 5911 5910 5908 5907 5906 5904 5903 5902 5901 5900
5934 5934 5934 5934 5933 5933 5932 5931 5931 5931 5932 5933 5932 5931 5931 5930 5930 5929 5928 5928 5927 5927 5926 5925 5924 5924 5923 5922 5922 5921 5920 5919 5918 5917 5916 5915 5914 5913 5911 5910 5909 5908 5906 5905 5904 5903 5902 5901 5900
5934 5934 5934 5934 5933 5932 5931 5930 5929 5930 5930 5931 5931 5931 5931 5930 5929 5928 5928 5927 5927 5926 5925 5925 5924 5923 5922 5922 5921 5920 5919 5918 5917 5916 5915 5914 5913 5912 5910 5909 5908 5907 5905 5904 5903 5902 5901 5900 5899
5934 5934 5934 5934 5932 5931 5930 5929 5929 5929 5929 5930 5930 5930 5930 5929 5928 5927 5927 5926 5925 5925 5924 5924 5923 5922 5921 5920 5920 5919 5918 5917 5916 5915 5914 5912 5911 5910 5909 5908 5907 5905 5904 5903 5902 5900 5899 5898 5898
5933 5934 5934 5933 5931 5930 5929 5928 5927 5927 5928 5928 5929 5928 5928 5928 5926 5926 5925 5925 5924 5923 5923 5922 5921 5921 5920 5919 5918 5917 5916 5915 5914 5912 5911 5910 5909 5908 5907 5906 5905 5903 5902 5901 5900 5899 5898 5897 5896
5933 5933 5933 5931 5930 5929 5928 5927 5926 5924 5926 5926 5927 5927 5927 5927 5925 5924 5924 5923 5923 5922 5921 5920 5920 5919 5918 5917 5916 5915 5913 5912 5911 5910 5908 5907 5906 5905 5904 5903 5902 5901 5899 5898 5897 5896 5896 5895 5894
5931 5931 5930 5929 5927 5926 5926 5925 5924 5923 5924 5924 5925 5925 5925 5925 5925 5923 5922 5921 5921 5920 5919 5918 5918 5917 5916 5914 5913 5912 5910 5909 5908 5906 5905 5903 5902 5901 5900 5899 5898 5897 5896 5895 5894 5893 5892 5892 5891
5928 5930 5928 5926 5924 5923 5923 5923 5922 5921 5921 5922 5922 5922 5922 5923 5923 5922 5920 5919 5919 5918 5917 5916 5915 5914 5913 5912 5910 5909 5907 5905 5904 5902 5901 5899 5898 5896 5895 5894 5893 5892 5891 5890 5890 5889 5888 5888 5887
5926 5928 5925 5923 5921 5921 5921 5921 5919 5918 5919 5919 5919 5920 5920 5920 5920 5920 5919 5917 5916 5915 5914 5913 5912 5911 5910 5908 5907 5905 5903 5901 5900 5898 5896 5895 5893 5892 5890 5889 5888 5887 5886 5885 5885 5884 5883 5883 5882
5921 5924 5923 5921 5919 5917 5918 5918 5917 5916 5916 5916 5916 5917 5917 5917 5917 5917 5917 5915 5913 5912 5912 5911 5909 5908 5906 5904 5903 5901 5899 5897 5895 5893 5891 5890 5888 5887 5885 5884 5882 5881 5880 5880 5879 5879 5878 5877 5876
5916 5919 5919 5917 5915 5914 5914 5915 5914 5913 5913 5913 5913 5913 5914 5913 5913 5913 5913 5912 5910 5909 5908 5907 5906 5904 5902 5900 5898 5897 5894 5892 5890 5888 5886 5884 5883 5881 5880 5878 5877 5876 5875 5874 5874 5873 5872 5871 5870
5912 5914 5914 5913 5911 5911 5911 5912 5911 5911 5911 5911 5910 5910 5910 5910 5909 5908 5908 5909 5906 5904 5903 5902 5901 5899 5897 5895 5893 5892 5890 5887 5885 5883 5881 5879 5877 5876 5875 5873 5871 5870 5869 5868 5868 5867 5866 5865 5864
5908 5909 5909 5909 5908 5908 5908 5909 5908 5908 5908 5907 5906 5906 5905 5904 5903 5903 5902 5903 5903 5901 5899 5897 5896 5894 5892 5889 5888 5886 5884 5882 5880 5879 5876 5874 5872 5871 5869 5868 5866 5865 5863 5863 5862 5861 5860 5859 5858
5903 5903 5905 5906 5906 5906 5906 5905 5905 5904 5904 5902 5901 5900 5899 5899 5899 5898 5897 5897 5896 5895 5893 5891 5889 5887 5885 5883 5881 5880 5878 5876 5874 5872 5870 5868 5867 5865 5863 5862 5860 5858 5857 5857 5856 5855 5854 5853 5852
5898 5899 5900 5901 5900 5901 5900 5900 5901 5900 5898 5897 5896 5895 5894 5894 5893 5892 5891 5890 5888 5886 5885 5882 5880 5879 5876 5875 5874 5872 5870 5868 5867 5865 5863 5862 5860 5859 5857 5855 5853 5852 5851 5850 5849 5849 5848 5848 5847
5893 5894 5895 5895 5894 5894 5894 5894 5895 5894 5893 5892 5892 5891 5889 5888 5887 5885 5883 5882 5879 5877 5875 5872 5870 5869 5866 5864 5864 5863 5862 5861 5859 5858 5856 5854 5853 5851 5850 5848 5847 5845 5844 5843 5843 5842 5842 5842 5841
5889 5890 5889 5890 5889 5888 5888 5888 5890 5889 5888 5887 5887 5885 5883 5881 5880 5878 5876 5872 5868 5865 5862 5862 5859 5858 5857 5856 5856 5856 5854 5853 5852 5850 5849 5847 5845 5844 5843 5841 5840 5839 5838 5837 5837 5836 5836 5835 5835
5885 5885 5885 5885 5885 5884 5884 5884 5884 5884 5884 5883 5881 5880 5878 5875 5874 5872 5868 5864 5859 5855 5852 5849 5849 5849 5848 5848 5848 5847 5846 5845 5844 5842 5841 5840 5838 5837 5836 5834 5834 5833 5832 5831 5831 5830 5830 5830 5830
5881 5881 5881 5881 5881 5881 5880 5880 5879 5879 5878 5878 5877 5875 5873 5871 5867 5864 5861 5857 5851 5846 5842 5843 5842 5842 5842 5840 5839 5838 5838 5838 5837 5835 5834 5832 5831 5829 5828 5827 5827 5826 5826 5825 5825 5824 5824 5824 5824
5877 5876 5876 5877 5877 5876 5876 5876 5875 5873 5872 5872 5871 5869 5867 5865 5862 5858 5854 5850 5845 5839 5833 5834 5833 5834 5834 5833 5831 5830 5830 5830 5829 5827 5826 5825 5823 5822 5821 5820 5820 5819 5819 5819 5819 5818 5818 5817 5817
5873 5873 5872 5872 5872 5872 5872 5872 5871 5869 5868 5866 5864 5863 5861 5858 5856 5853 5849 5845 5842 5837 5833 5828 5826 5826 5825 5823 5823 5823 5822 5822 5820 5819 5819 5818 5816 5814 5813 5812 5812 5812 5812 5812 5812 5812 5812 5811 5811
5870 5870 5869 5869 5869 5869 5869 5868 5867 5864 5863 5861 5858 5856 5855 5853 5851 5848 5845 5841 5837 5834 5830 5826 5823 5822 5821 5818 5816 5815 5814 5813 5813 5812 5811 5810 5809 5807 5805 5805 5805 5805 5804 5804 5804 5804 5804 5805 5804
5867 5866 5866 5865 5865 5865 5864 5863 5862 5859 5856 5854 5851 5850 5849 5847 5845 5842 5839 5836 5833 5829 5825 5822 5819 5816 5814 5812 5809 5808 5806 5805 5804 5803 5802 5801 5800 5798 5797 5797 5797 5796 5796 5796 5796 5796 5796 5797 5797
5865 5864 5863 5862 5861 5861 5860 5858 5857 5853 5850 5846 5844 5842 5841 5840 5838 5835 5832 5829 5826 5823 5818 5814 5811 5809 5806 5803 5801 5800 5797 5795 5794 5793 5792 5791 5790 5789 5788 5788 5787 5787 5787 5787 5787 5787 5788 5788 5788
5863 5862 5860 5859 5858 5857 5855 5853 5852 5849 5845 5842 5839 5837 5835 5834 5831 5828 5825 5822 5819 5815 5811 5807 5803 5800 5797 5794 5792 5790 5787 5785 5784 5783 5781 5780 5779 5778 5778 5777 5777 5777 5777 5777 5777 5778 5778 5779 5779
5860 5859 5858 5856 5854 5853 5851 5848 5848 5844 5840 5837 5835 5832 5829 5826 5823 5821 5818 5814 5810 5806 5801 5797 5793 5790 5786 5782 5779 5777 5774 5773 5771 5770 5768 5767 5766 5765 5765 5765 5765 5765 5765 5765 5766 5767 5768 5768 5769
5858 5856 5855 5853 5851 5849 5846 5844 5842 5838 5835 5832 5829 5825 5822 5819 5816 5812 5808 5804 5800 5796 5791 5787 5782 5777 5773 5769 5765 5762 5760 5757 5755 5754 5752 5752 5751 5751 5751 5750 5751 5752 5752 5753 5753 5754 5756 5757 5758
5856 5854 5852 5850 5847 5844 5842 5840 5837 5833 5829 5824 5821 5817 5813 5809 5805 5802 5797 5793 5789 5784 5779 5773 5768 5763 5759 5754 5750 5747 5744 5741 5739 5737 5735 5734 5734 5734 5734 5734 5735 5736 5737 5739 5740 5742 5743 5745 5747
5854 5852 5850 5847 5845 5841 5838 5838 5833 5828 5824 5819 5814 5809 5804 5799 5794 5789 5784 5779 5773 5768 5763 5758 5752 5747 5742 5737 5733 5729 5726 5723 5721 5718 5717 5716 5715 5715 5716 5717 5718 5719 5720 5723 5725 5727 5729 5731 5734
5851 5849 5847 5845 5842 5837 5834 5833 5827 5822 5817 5812 5807 5801 5795 5789 5784 5778 5771 5765 5759 5752 5746 5740 5734 5729 5724 5719 5714 5710 5706 5703 5700 5698 5697 5696 5695 5695 5695 5697 5698 5700 5702 5705 5708 5711 5714 5717 5720